This is the latest recevied weather packets stored in our database for station/object DL2RXE-13. If no packets are shown the sender has not sent any weather packets the latest 10 day(s).
| Time | Temp. | Humidity | Pressure | Rain* | Wind** | Luminosity | Snow |
|---|---|---|---|---|---|---|---|
| 1777670442 | 8.33° C | 82% | 1025.4 hPa | 0 mm | - | 0 W/m² | - |
| 1777669842 | 8.89° C | 82% | 1025.6 hPa | 0 mm | - | 0 W/m² | - |
| 1777667451 | 8.89° C | 82% | 1025.6 hPa | 0 mm | - | 0 W/m² | - |
| 1777666845 | 10° C | 77% | 1025.8 hPa | 0 mm | - | 0 W/m² | - |
| 1777666282 | 10.56° C | 75% | 1025.8 hPa | 0 mm | - | 0 W/m² | - |
| 1777663869 | 12.22° C | 70% | 1025.7 hPa | 0 mm | - | 0 W/m² | - |
| 1777662641 | 12.78° C | 69% | 1025.8 hPa | 0 mm | - | 0 W/m² | - |
| 1777660250 | 16.67° C | 54% | 1025.8 hPa | 0 mm | - | 3 W/m² | - |
| 1777651230 | 22.22° C | 41% | 1026.2 hPa | 0 mm | - | 226 W/m² | - |
| 1777650028 | 22.22° C | 39% | 1026.3 hPa | 0 mm | - | 283 W/m² | - |
| 1777648828 | 22.22° C | 40% | 1026.4 hPa | 0 mm | - | 325 W/m² | - |
| 1777645228 | 22.22° C | 37% | 1027 hPa | 0 mm | - | 465 W/m² | - |
| 1777632028 | 19.44° C | 48% | 1029 hPa | 0 mm | - | 538 W/m² | - |
| 1777631428 | 20° C | 49% | 1029.1 hPa | 0 mm | - | 538 W/m² | - |
| 1777628428 | 18.33° C | 51% | 1029.5 hPa | 0 mm | - | 585 W/m² | - |
| 1777621229 | 16.67° C | 55% | 1029.8 hPa | 0 mm | - | 346 W/m² | - |
| 1777620629 | 16.11° C | 58% | 1029.9 hPa | 0 mm | - | 336 W/m² | - |
| 1777618249 | 16.11° C | 59% | 1029.8 hPa | 0 mm | - | 245 W/m² | - |
| 1777614032 | 10.56° C | 75% | 1029.8 hPa | 0 mm | - | 111 W/m² | - |
| 1777612829 | 9.44° C | 75% | 1029.6 hPa | 0 mm | - | 58 W/m² | - |
| 1777612231 | 7.78° C | 79% | 1029.6 hPa | 0 mm | - | 50 W/m² | - |
| 1777611030 | 4.44° C | 89% | 1029.7 hPa | 0 mm | - | 34 W/m² | - |
| 1777608667 | 2.22° C | 93% | 1029.5 hPa | 0 mm | - | 11 W/m² | - |
| 1777605646 | 1.67° C | 94% | 1029.5 hPa | 0 mm | - | 0 W/m² | - |
| 1777604442 | 2.22° C | 93% | 1029.6 hPa | 0 mm | - | 0 W/m² | - |
* Rain latest hour (hover to see other rain measurements)
** Current wind speed in m/s (hover to see current wind gust speed)